Weather History for Andover, NJ

Change the Weather History Date:

Sunday, April 29, 2012

  Actual Average (KFWN) Record (KFWN)
Temperature  
Mean Temperature 47 °F -  
Max Temperature 62 °F 64 °F 92 °F (1990)
Min Temperature 33 °F 38 °F 27 °F (1968)
Degree Days  
Heating Degree Days 18    
Moisture  
Dew Point 21 °F    
Average Humidity 43    
Maximum Humidity 89    
Minimum Humidity 17    
Precipitation  
Precipitation 0.00 in - - ()
Sea Level Pressure  
Sea Level Pressure 30.17 in    
Wind  
Wind Speed 3 mph (North)    
Max Wind Speed 13 mph    
Max Gust Speed 24 mph    
Averages and records for this station are not official NWS values.
T = Trace of Precipitation, MM = Missing Value Source: NWS Daily Summary

Daily Weather History Graph

Daily Weather History Graph

Search for Another Location

Airport:

Trip Planner

Search our weather history database for the weather conditions in past years. The results will help you decide how hot, cold, wet, or windy it might be!

Date:

Astronomy

Apr. 29, 2012 Rise Set
Actual Time 5:58 AM EDT 7:54 PM EDT
Civil Twilight 5:29 AM EDT 8:23 PM EDT
Nautical Twilight 4:53 AM EDT 9:00 PM EDT
Astronomical Twilight 4:14 AM EDT 9:39 PM EDT
Moon 12:40 PM EDT (4/29) 1:51 AM EDT (4/29)
Length of Visible Light 14h 54m
Length of Day
13h 55m
First Quarter, 53% of the Moon is Illuminated
Apr 29
First Quarter
May 5
Full
May 12
Last Quarter
May 20
New
May 28
First Quarter

Hourly Weather History & Observations

Time (EDT) Temp. Dew Point Humidity Pressure Visibility Wind Dir Wind Speed Gust Speed Precip Events Conditions
12:54 AM 45.0 °F 35.1 °F 68% 30.14 in - Calm Calm - N/A   Unknown
1:54 AM 39.9 °F 34.0 °F 79% 30.14 in - Calm Calm - N/A   Unknown
2:54 AM 37.0 °F 33.1 °F 86% 30.15 in - Calm Calm - N/A   Unknown
3:54 AM 35.1 °F 32.0 °F 89% 30.16 in - Calm Calm - N/A   Unknown
4:54 AM 34.0 °F 30.9 °F 89% 30.16 in - Calm Calm - N/A   Unknown
5:54 AM 33.1 °F 30.0 °F 89% 30.18 in - Calm Calm - N/A   Unknown
6:54 AM 33.1 °F 30.0 °F 89% 30.20 in - Calm Calm - N/A   Unknown
7:54 AM 42.1 °F 27.0 °F 55% 30.22 in - Calm Calm - N/A   Unknown
8:54 AM 46.9 °F 19.9 °F 34% 30.21 in - NNE 5.8 mph - N/A   Unknown
9:54 AM 50.0 °F 18.0 °F 28% 30.20 in - Variable 4.6 mph - N/A   Unknown
10:54 AM 54.0 °F 12.0 °F 19% 30.20 in - Variable 5.8 mph - N/A   Unknown
11:54 AM 55.0 °F 12.9 °F 19% 30.17 in - NW 6.9 mph - N/A   Unknown
12:54 PM 57.9 °F 12.9 °F 17% 30.14 in - NNW 12.7 mph 18.4 mph N/A   Unknown
1:54 PM 59.0 °F 17.1 °F 20% 30.12 in - Variable 4.6 mph - N/A   Unknown
2:54 PM 61.0 °F 15.1 °F 17% 30.11 in - North 9.2 mph 24.2 mph N/A   Unknown
3:54 PM 61.0 °F 17.1 °F 18% 30.11 in - North 9.2 mph - N/A   Unknown
4:54 PM 61.0 °F 15.1 °F 17% 30.11 in - North 11.5 mph 21.9 mph N/A   Unknown
5:54 PM 61.0 °F 15.1 °F 17% 30.12 in - North 10.4 mph 18.4 mph N/A   Unknown
6:54 PM 57.9 °F 14.0 °F 18% 30.14 in - North 9.2 mph 23.0 mph N/A   Unknown
7:54 PM 55.0 °F 16.0 °F 22% 30.17 in - North 5.8 mph - N/A   Unknown
8:54 PM 52.0 °F 16.0 °F 24% 30.21 in - North 8.1 mph - N/A   Unknown
9:54 PM 48.9 °F 16.0 °F 27% 30.25 in - Calm Calm - N/A   Unknown
10:54 PM 46.9 °F 17.1 °F 30% 30.26 in - North 5.8 mph - N/A   Unknown
11:54 PM 39.9 °F 24.1 °F 53% 30.29 in - Calm Calm - N/A   Unknown